Wind_Speed
74 80 85 89 93 90 85 92 91 81 86 93 88 90 89 82 82 82 81 81 79 78 77 77 77 75 74 72 69 66 65 63 61 60 57 54 51 49 47 44 43 41 39 38 37 34 33 31 29 27 26 24 23 24 26 28 28 28 27 26 24 23 24 23 19 17 15 15 14 12 13 12 12 12 11 11 11 12 13 14 13 13 13 12 12 12 11 11
63 70 77 84 89 87 82 86 88 79 80 92 89 87 87 81 83 83 81 82 79 78 78 78 78 77 76 73 71 69 67 65 63 61 58 55 53 50 48 46 44 43 40 39 37 35 34 32 30 29 27 25 24 23 23 25 27 28 29 27 25 25 25 22 19 20 19 18 16 14 13 12 13 13 13 12 12 13 14 14 14 13 13 13 12 11 11 11
57 62 70 79 85 86 84 82 82 76 74 88 90 87 86 79 82 84 81 82 80 79 78 78 78 77 77 75 73 71 69 67 65 62 58 57 55 52 49 46 45 44 42 40 39 37 36 33 32 30 29 28 25 23 22 22 25 28 29 28 28 27 24 22 22 21 20 20 18 16 15 13 13 13 13 13 13 14 14 13 13 13 13 13 13 12 11 11
55 57 63 73 83 85 85 83 79 72 69 80 86 87 89 79 79 84 81 81 80 79 78 78 78 77 78 76 74 72 71 70 67 62 59 57 55 53 50 48 46 45 44 42 40 38 37 34 33 32 32 29 26 23 22 23 24 26 26 29 30 28 26 23 22 21 20 20 20 19 16 14 13 14 14 14 15 14 12 11 11 12 13 13 13 13 12 11
54 55 60 69 80 84 84 84 80 74 67 71 78 85 90 82 78 83 82 81 80 79 79 78 77 77 77 76 74 73 72 72 67 62 60 59 56 54 51 49 48 46 45 43 41 39 37 35 34 34 33 30 28 25 24 24 24 23 25 29 31 31 29 24 22 22 21 19 20 19 17 16 16 15 14 15 15 13 11 11 11 12 13 15 15 14 14 13
53 55 60 67 78 84 84 84 80 76 69 65 70 79 88 86 78 81 82 80 80 79 80 79 76 75 76 75 74 74 74 72 68 63 62 60 58 56 53 51 49 47 45 43 42 40 38 36 36 36 34 31 28 27 26 25 23 23 26 29 30 33 31 25 25 25 22 21 20 18 19 20 18 16 15 16 15 12 12 12 11 12 14 16 16 16 16 15
50 54 60 66 76 83 84 85 81 78 72 64 66 71 81 87 78 76 82 81 79 80 80 79 77 73 72 75 75 75 75 74 69 65 63 62 60 57 55 53 50 48 46 43 42 41 39 38 37 36 34 32 29 28 30 26 23 24 27 27 27 31 31 27 27 26 23 22 20 19 20 21 20 18 16 18 16 13 13 13 12 13 14 16 17 17 17 16
48 54 58 64 74 82 84 84 82 81 74 66 66 67 75 87 80 71 79 83 80 80 80 79 77 72 71 74 76 77 76 75 71 66 64 63 62 59 57 54 52 50 46 44 43 41 40 39 38 36 34 33 31 32 32 26 25 26 26 25 24 29 31 29 28 26 25 23 22 21 21 21 21 19 19 20 18 14 14 14 14 14 14 16 17 17 18 17
47 54 56 62 74 82 85 83 83 85 79 70 68 69 72 83 83 70 72 83 83 80 79 77 77 74 72 72 75 77 76 75 72 66 64 64 63 60 58 56 53 51 48 45 44 42 42 41 37 36 35 35 35 35 32 29 29 28 25 21 22 27 29 30 29 27 26 25 24 23 22 21 20 20 22 23 18 15 15 15 15 14 14 16 17 17 18 18
48 54 55 62 73 83 87 84 85 89 84 74 69 71 74 80 84 72 66 79 83 80 78 75 75 75 73 72 74 77 75 74 73 66 63 64 63 61 59 58 55 52 50 47 45 44 43 41 37 37 37 38 38 36 33 32 31 28 24 19 21 26 27 28 29 28 27 26 25 25 24 22 20 21 22 22 19 17 18 16 16 15 15 16 16 17 17 18
50 55 57 61 69 80 89 85 86 92 86 76 69 68 73 79 86 75 62 73 81 80 78 72 70 73 76 75 73 75 75 73 72 66 63 64 63 61 59 58 57 54 52 49 47 46 44 40 38 39 40 40 39 37 35 34 31 27 26 23 24 25 23 24 26 27 28 27 26 26 26 24 21 20 21 24 23 21 20 17 16 16 17 17 16 16 17 18
52 56 58 60 64 74 87 88 87 91 88 79 69 62 66 76 87 78 63 72 81 77 75 71 68 68 73 77 74 73 72 71 70 67 65 64 64 62 60 59 58 56 53 51 49 48 46 42 40 41 44 43 41 39 36 34 32 29 28 27 27 24 21 22 23 25 26 25 25 27 28 25 22 20 23 27 25 23 21 18 18 18 18 18 17 17 17 17
53 57 56 58 61 68 82 89 87 89 90 84 74 63 61 72 86 82 66 71 79 74 72 72 72 67 65 71 75 74 72 70 70 68 66 66 65 63 61 59 58 57 55 53 52 50 47 44 43 44 48 47 43 41 37 34 34 31 31 31 29 25 23 23 22 22 21 21 23 26 26 24 23 23 25 28 25 23 22 20 20 19 19 19 19 18 18 17
52 54 54 55 58 64 77 87 87 89 94 91 81 68 61 66 82 86 73 71 76 74 72 70 73 73 66 64 67 69 69 71 73 70 68 68 66 64 62 60 58 57 57 55 54 51 47 44 44 47 51 50 46 42 37 36 36 35 35 35 30 27 25 24 22 21 20 19 21 23 21 21 24 25 25 27 26 25 24 22 22 21 20 20 20 19 19 18
51 51 50 53 55 60 73 85 87 89 97 97 87 74 64 59 72 85 77 73 74 71 73 68 66 74 72 65 62 63 62 65 72 73 71 69 67 66 63 61 59 57 57 56 54 51 46 45 45 50 54 52 48 43 39 38 39 38 38 36 32 28 26 24 22 23 21 19 21 21 17 19 25 27 27 28 27 27 26 24 23 22 21 21 21 20 20 19
50 50 49 51 52 56 67 80 87 90 98 102 91 79 70 58 63 81 78 75 74 67 71 65 58 71 77 72 66 64 61 59 64 70 72 71 69 67 63 62 60 57 57 56 55 52 48 49 50 53 56 54 51 46 42 42 42 42 40 36 32 27 26 25 24 24 22 20 21 17 13 19 26 28 28 28 28 28 26 23 22 22 21 21 21 21 21 20
50 50 50 51 53 56 62 72 84 93 99 103 98 84 76 65 60 75 80 78 77 71 72 58 47 66 81 81 73 65 63 58 55 59 66 71 70 69 66 63 62 59 58 57 56 53 50 53 55 54 56 56 54 49 46 47 45 43 40 33 29 26 27 27 25 25 24 21 20 16 13 18 24 26 26 27 28 28 25 23 23 22 21 20 20 21 21 21
50 50 50 52 55 58 60 65 77 94 98 101 104 89 80 73 62 70 81 85 82 77 77 55 38 56 76 85 80 66 61 58 53 51 57 66 69 69 67 64 63 61 60 59 57 55 52 55 55 54 56 56 54 51 50 49 45 40 37 32 29 29 30 29 26 26 25 23 22 19 16 19 22 23 23 24 26 25 23 23 23 23 22 21 19 19 20 20
49 50 51 51 54 57 61 61 69 89 96 98 105 94 83 78 69 69 79 91 87 80 84 61 39 52 67 79 83 73 64 58 54 52 52 58 63 67 68 65 65 64 63 62 60 58 56 56 55 55 57 55 53 52 49 47 42 38 37 33 31 32 32 30 29 27 25 24 24 22 20 20 21 20 20 22 22 20 20 22 22 22 22 21 21 20 20 19
48 50 52 52 53 55 59 60 64 78 91 96 103 100 89 84 78 73 79 94 90 81 85 64 46 58 63 67 78 80 73 62 56 56 54 55 57 63 69 68 67 68 66 63 62 61 60 58 56 55 56 55 53 50 47 45 42 41 40 35 32 34 32 31 31 27 25 25 25 24 22 22 21 20 21 21 19 17 18 20 20 20 20 20 21 22 22 20
47 50 52 54 53 54 56 58 60 69 83 92 99 104 99 90 83 74 74 90 94 84 76 61 58 74 72 65 69 74 76 70 60 56 57 57 56 60 68 72 71 71 69 65 64 65 64 62 58 55 55 55 52 49 46 46 46 44 41 37 34 34 32 31 32 26 25 27 26 26 24 22 22 22 22 21 18 16 18 19 18 19 18 18 19 22 23 22
47 49 51 55 55 55 55 55 58 63 73 84 92 101 106 98 84 73 71 83 96 89 70 61 67 79 79 72 67 67 70 74 69 58 56 61 63 61 66 73 73 72 70 68 68 68 67 65 58 55 56 55 53 50 49 48 47 44 42 39 36 33 30 31 33 28 27 29 28 29 28 24 23 24 23 21 19 18 19 20 19 19 16 14 15 18 20 21
48 48 50 53 55 56 56 56 57 60 66 73 82 93 104 104 90 79 75 77 91 92 72 65 72 72 75 71 65 66 66 69 74 65 54 59 64 62 65 73 74 73 71 70 70 68 68 65 58 56 58 56 54 50 50 51 48 45 43 40 35 32 31 32 33 31 29 29 29 31 32 28 24 24 23 22 22 21 21 20 19 18 16 14 14 15 16 17
49 50 50 52 55 56 57 58 57 60 63 65 72 84 96 103 96 88 83 76 81 88 74 69 76 74 73 68 59 64 67 64 69 70 59 55 58 60 65 73 73 72 72 71 69 67 66 62 58 59 58 55 52 47 47 50 49 46 43 40 36 32 32 32 34 34 31 31 32 33 35 32 27 25 25 24 25 23 21 21 19 17 17 17 17 16 16 17
50 51 51 52 54 56 57 58 57 58 61 61 65 74 85 95 98 95 91 82 77 82 77 73 78 77 75 73 60 56 65 65 66 69 61 53 55 58 64 73 72 71 72 70 70 69 68 65 62 63 58 51 50 45 43 45 46 46 44 40 37 34 33 33 35 36 33 33 35 36 38 35 29 27 26 25 25 23 22 22 19 18 20 20 20 19 19 19
51 51 52 52 53 55 56 57 57 57 58 60 62 68 76 84 91 93 92 91 84 80 80 77 79 75 71 76 68 54 59 67 69 68 59 53 54 56 62 71 71 70 69 68 69 71 70 69 69 67 61 55 52 48 44 42 43 45 44 40 39 36 35 36 36 37 36 36 38 38 40 37 31 27 25 25 25 24 24 23 21 20 22 23 23 23 23 23
51 52 52 52 53 53 55 56 57 57 56 58 61 64 69 72 80 86 84 91 91 82 79 81 83 76 65 68 68 59 60 68 73 72 65 58 56 56 60 67 70 68 67 68 70 73 72 71 72 71 66 62 58 52 47 44 42 44 43 40 38 38 38 38 38 39 38 39 41 41 41 40 34 28 25 26 26 24 24 23 23 24 24 24 24 24 25 24
52 54 52 52 53 52 55 56 55 57 54 55 60 61 65 65 71 78 76 83 90 86 79 81 87 81 69 63 61 62 66 69 72 74 71 66 62 61 61 63 67 67 66 69 71 72 72 72 72 71 68 65 60 53 49 46 44 44 43 40 38 39 41 41 41 42 42 42 44 43 42 42 39 31 26 27 27 24 23 24 25 25 25 24 25 26 25 25
52 55 54 52 54 53 55 55 53 56 53 53 58 59 61 61 63 69 70 76 89 91 81 80 88 85 75 68 63 65 71 70 71 74 71 67 65 66 66 63 63 63 63 65 67 68 68 68 68 65 64 62 55 49 48 48 45 45 45 42 40 43 44 44 44 44 44 46 45 44 43 44 43 36 30 28 28 25 23 26 27 26 26 26 26 27 26 25
53 56 56 54 55 55 55 54 54 55 53 52 57 59 58 57 60 61 62 75 90 93 85 80 87 88 76 71 68 67 75 75 70 71 71 66 63 64 67 67 65 66 66 64 65 67 66 65 64 61 60 57 51 47 48 49 47 48 49 45 44 45 46 46 47 47 48 49 48 46 45 45 45 41 33 28 27 26 25 27 28 27 27 28 28 27 26 25
54 56 58 56 55 56 56 56 56 54 52 50 53 58 58 57 59 58 62 80 90 91 90 83 84 89 78 71 68 63 72 81 72 68 70 68 64 61 63 66 67 66 68 67 65 66 66 66 65 62 59 56 52 50 50 51 52 51 51 48 47 47 48 49 50 51 52 51 50 48 46 46 46 43 37 31 27 27 28 29 30 30 29 29 29 27 25 25
55 55 58 58 57 57 57 57 57 55 51 49 49 55 59 60 61 59 65 79 84 87 94 87 81 85 78 72 72 61 62 79 80 71 67 66 66 65 63 64 65 64 67 69 67 65 65 65 66 64 60 57 55 53 52 54 54 53 53 52 51 50 51 52 53 54 54 53 52 50 48 48 46 42 40 37 31 28 29 30 31 31 32 31 29 27 26 26
56 56 58 59 58 58 58 58 57 56 52 49 48 51 54 60 63 62 66 72 76 84 93 88 81 80 76 73 75 64 53 67 83 80 72 67 66 67 66 64 63 61 63 67 69 68 67 66 66 65 62 59 57 55 55 57 56 55 56 56 54 53 54 54 54 55 55 54 52 51 50 49 46 42 40 40 36 31 30 31 30 32 34 33 30 29 27 27
56 57 59 60 60 59 59 59 59 57 52 49 52 51 50 56 60 61 67 69 71 80 88 89 84 80 76 73 74 67 49 51 71 83 82 77 72 70 68 67 66 62 59 61 66 69 69 69 68 66 63 61 58 57 57 56 53 52 53 53 52 52 52 52 53 53 54 54 54 53 52 50 46 43 41 40 39 37 34 33 32 33 34 34 32 31 30 30
57 57 60 60 60 61 60 60 60 59 55 51 54 56 54 55 56 59 66 66 69 78 82 84 87 84 80 75 74 68 52 42 50 68 83 88 83 77 72 69 68 66 63 61 62 64 65 66 66 64 63 61 59 59 57 55 54 52 52 53 52 51 51 52 53 54 54 56 56 55 54 51 47 45 43 42 42 41 38 35 33 33 33 33 32 33 33 33
58 57 60 61 61 61 60 60 60 60 59 55 54 57 57 56 55 58 63 64 68 76 78 79 85 89 86 81 77 73 62 48 41 50 70 84 89 86 78 72 68 67 67 65 63 62 61 62 64 63 63 61 59 59 59 56 55 54 55 56 55 53 52 52 54 54 54 55 57 56 54 52 49 48 46 44 43 42 39 36 33 34 35 34 34 35 35 34
59 58 60 61 61 62 61 61 61 61 61 59 57 57 55 54 55 55 59 64 67 72 75 76 80 87 89 85 82 78 71 59 47 45 56 71 84 89 84 77 71 67 67 66 64 61 60 61 63 62 62 61 59 60 62 60 57 57 57 57 55 52 51 51 53 53 53 55 57 56 54 53 51 50 47 44 42 41 41 39 36 35 36 37 36 35 34 32
60 59 60 61 62 62 62 62 62 62 61 61 61 58 54 54 54 55 56 61 66 69 71 73 75 81 87 89 85 79 73 66 55 48 50 60 73 83 84 80 75 70 67 67 66 62 60 59 59 59 59 59 58 60 62 61 59 57 56 55 54 52 51 50 51 53 54 55 56 56 55 54 53 49 44 42 41 41 41 42 40 38 38 39 38 35 31 29
61 60 61 62 63 62 63 63 62 63 62 62 62 61 59 56 53 55 56 58 64 69 70 69 69 74 80 86 89 84 74 68 60 51 50 57 64 72 77 75 72 72 70 69 68 65 61 60 59 58 58 58 59 62 62 60 56 54 54 54 53 53 53 51 50 51 52 53 54 55 55 54 51 45 41 41 40 39 41 43 44 42 40 38 36 34 31 31
61 61 61 63 64 63 63 63 62 63 63 63 61 61 61 58 54 54 56 58 62 66 69 69 69 72 72 73 81 86 80 72 64 53 50 56 62 65 68 67 63 65 67 67 69 68 63 62 61 61 60 60 62 62 59 56 55 53 53 52 51 52 52 51 50 49 50 51 52 53 55 54 49 45 42 41 40 39 40 41 43 44 42 37 34 33 32 32
62 61 62 63 64 64 63 63 62 63 64 65 63 61 60 59 58 56 54 56 59 62 66 69 71 75 75 68 67 74 79 77 71 60 51 52 62 65 64 63 60 60 64 66 68 68 66 64 64 66 64 61 61 61 57 55 55 53 51 50 49 49 49 48 48 47 47 49 48 49 53 52 48 46 43 39 38 41 42 41 42 45 44 39 35 33 32 32
64 62 61 62 64 64 62 62 62 63 66 66 64 62 61 59 60 59 55 53 56 58 61 66 69 73 77 77 68 63 68 76 76 70 59 52 56 60 58 60 61 61 64 67 66 67 67 66 67 69 68 64 63 63 60 57 56 54 52 50 49 50 50 48 48 47 45 45 43 44 50 54 51 48 45 39 37 40 43 42 41 41 41 39 36 35 35 35
66 64 61 61 63 64 64 64 64 64 66 66 64 63 62 60 60 61 61 57 55 54 56 61 66 69 72 78 78 69 64 68 70 67 64 57 51 49 48 51 58 63 66 65 61 61 65 66 68 70 71 69 67 65 62 59 58 58 55 52 52 52 50 48 48 48 46 45 43 44 52 59 55 47 44 41 38 39 39 39 39 39 39 39 39 39 39 39
67 66 63 61 62 64 66 67 66 67 66 65 66 66 64 64 62 61 64 64 60 55 54 55 58 65 70 73 78 78 71 68 64 55 56 62 57 47 44 46 52 63 70 67 58 53 57 61 65 68 69 70 71 70 69 66 65 63 58 56 55 53 51 50 49 50 51 49 48 50 55 59 52 43 42 41 38 38 37 36 37 38 39 39 40 41 41 40
68 68 66 63 63 64 67 68 66 67 67 66 67 67 65 65 64 62 62 64 64 60 57 55 51 55 66 72 76 81 77 75 70 55 47 55 59 54 49 47 49 56 64 66 60 55 56 59 60 62 67 73 76 76 74 71 68 66 63 59 57 56 55 52 50 53 53 49 49 51 50 48 43 39 39 39 37 35 35 35 36 37 38 40 41 42 41 40
69 70 69 65 63 63 65 67 67 68 68 67 67 67 66 65 64 63 62 62 64 64 62 59 53 50 58 68 76 82 81 79 79 70 55 49 51 52 50 48 49 51 52 55 60 61 63 63 59 58 61 64 67 68 67 66 65 63 60 57 56 56 54 50 50 51 46 45 48 46 40 36 36 37 38 37 34 32 33 35 36 38 40 42 42 42 41 40
65 69 70 68 64 62 63 66 68 69 69 68 68 67 67 66 63 63 64 63 62 64 64 63 59 55 56 61 69 79 83 82 83 82 74 62 51 47 48 49 49 51 49 48 53 59 64 67 66 62 57 54 55 57 57 57 58 56 55 53 52 52 50 49 48 43 40 46 45 35 29 30 32 36 37 35 34 34 35 35 37 40 42 42 41 41 41 41
61 65 69 69 66 64 63 64 67 69 69 69 68 68 66 66 65 64 65 63 61 62 65 65 63 59 57 59 63 70 78 83 86 85 83 77 63 49 45 45 46 48 51 50 49 53 59 63 66 66 62 57 55 55 53 52 53 54 55 54 52 52 51 49 44 37 40 44 33 21 24 28 29 33 34 33 35 38 39 38 39 42 42 41 41 42 41 40
58 61 66 69 68 66 63 62 62 66 69 69 69 69 68 67 66 65 63 63 63 62 64 67 65 60 56 58 61 65 70 78 87 89 84 81 74 59 46 43 42 43 48 51 49 51 55 55 57 62 65 64 62 58 54 53 53 56 59 58 57 55 52 49 43 37 39 37 25 24 31 31 31 35 36 36 40 41 41 41 42 43 42 41 42 41 41 41
56 59 63 67 69 69 66 63 61 63 67 70 71 70 70 68 67 65 64 64 65 63 63 66 67 63 59 59 61 64 66 70 80 88 86 81 77 67 52 43 41 40 45 50 49 50 52 51 50 53 57 62 66 62 58 56 55 57 60 61 61 58 54 51 44 39 41 37 30 34 38 35 34 35 35 36 37 37 38 39 40 42 43 43 43 42 41 41
54 57 60 64 67 69 69 67 64 62 63 68 71 71 71 70 67 65 65 65 64 62 61 63 64 63 62 61 61 64 66 67 73 81 84 82 78 72 62 52 47 46 47 50 52 51 50 50 49 51 53 58 62 63 61 58 59 61 63 64 65 62 57 52 45 41 42 38 34 37 36 31 30 31 31 31 31 32 35 36 39 43 44 45 44 42 40 39
54 56 58 62 65 67 69 68 67 65 62 64 69 71 70 69 66 65 66 65 64 62 60 59 60 62 63 63 62 64 66 68 71 71 75 80 78 73 66 59 54 51 47 48 51 52 51 51 52 54 56 57 60 64 62 59 62 67 64 60 62 62 57 51 46 44 42 37 36 35 28 23 25 27 28 30 32 35 37 39 42 43 44 44 42 40 40 40
Wind_Direction
223 223 220 216 214 212 214 216 218 220 218 216 216 217 217 215 213 212 213 213 214 213 213 213 214 215 215 214 215 215 214 214 215 215 213 213 213 212 212 213 213 212 209 210 211 211 213 214 215 216 216 213 211 209 209 214 220 222 218 218 214 211 215 210 210 211 206 218 220 218 222 219 222 223 224 224 221 219 218 220 217 212 209 210 216 217 221 224
220 224 222 216 212 209 210 214 216 219 219 215 215 216 217 216 214 212 212 213 213 213 214 214 214 215 215 215 215 215 215 215 215 214 213 213 214 213 213 213 214 213 210 210 211 212 214 215 216 218 219 216 215 211 209 212 218 223 220 219 217 215 215 208 210 213 209 216 219 219 223 221 223 225 227 227 228 227 222 221 218 216 215 215 219 221 225 228
213 219 221 217 212 208 208 211 212 217 218 215 214 214 215 217 214 212 212 213 213 213 214 214 214 214 215 215 216 216 216 215 215 213 213 214 214 214 214 213 214 214 212 211 212 213 214 215 216 218 221 219 217 214 211 212 216 222 221 220 219 217 214 207 210 215 212 214 217 219 223 224 227 228 229 230 232 234 231 229 223 220 220 221 222 222 224 229
210 215 218 216 212 208 208 209 210 213 214 214 215 214 214 217 216 212 212 213 213 213 214 214 214 215 215 216 217 217 216 216 214 213 214 215 215 215 215 213 214 214 213 213 213 214 215 215 217 219 221 220 218 216 214 215 218 219 221 222 221 218 213 208 212 216 215 216 217 219 221 224 230 231 230 232 234 235 238 238 232 226 225 226 227 225 222 224
211 211 214 214 212 208 207 209 209 208 208 211 215 215 214 216 218 213 211 212 213 213 214 214 214 215 216 216 218 218 217 216 213 214 216 216 216 216 216 215 214 215 214 214 215 216 216 217 218 221 222 222 220 219 217 217 218 216 220 223 221 219 213 208 215 216 214 217 219 220 219 221 228 231 233 235 236 235 237 238 234 229 228 228 229 229 225 222
211 210 211 211 209 207 206 208 209 205 203 205 209 214 215 215 218 215 212 212 212 213 213 214 214 215 217 217 218 218 218 216 213 214 217 216 216 215 215 215 214 215 215 215 217 217 218 218 220 222 221 223 222 222 222 218 218 215 220 223 221 220 214 210 218 218 215 217 220 221 221 222 225 229 234 240 239 234 235 237 234 231 230 230 229 229 229 226
211 211 211 208 206 206 205 208 208 203 201 202 203 208 213 215 216 214 213 212 211 213 214 213 214 215 217 218 218 218 217 216 213 215 218 217 217 215 215 216 214 215 215 215 218 218 219 219 221 224 222 224 223 225 226 221 220 219 220 223 220 219 216 215 220 219 217 218 219 222 225 226 225 226 231 239 237 231 234 235 235 232 232 234 232 231 230 229
211 211 211 207 205 205 204 207 207 202 199 201 202 203 207 212 213 212 212 213 212 213 213 213 213 214 217 219 218 218 216 215 214 215 218 219 217 216 216 216 215 215 215 216 218 219 220 220 221 224 223 224 224 225 227 222 223 223 221 221 219 219 218 218 222 221 220 220 220 222 227 229 228 227 230 236 235 229 233 233 235 235 235 238 237 235 233 232
211 211 211 207 205 204 204 206 205 201 199 200 199 200 203 207 209 210 211 211 211 212 212 213 213 214 217 219 218 217 217 216 215 216 218 219 219 219 218 217 216 217 217 217 219 220 221 220 221 225 225 224 224 225 225 223 224 224 222 218 218 222 219 219 222 224 225 224 224 224 227 230 231 230 232 237 237 233 234 232 235 237 238 243 242 240 237 235
210 210 210 208 206 204 204 206 204 201 200 198 195 194 199 203 205 208 209 209 210 211 211 212 214 215 216 219 219 217 216 217 218 218 219 220 221 221 221 219 218 219 220 219 219 221 222 221 222 227 228 225 225 226 225 225 226 225 224 216 217 224 220 220 224 225 228 228 226 226 227 229 229 232 236 240 239 234 235 233 234 237 239 245 247 247 244 240
210 209 211 210 209 205 204 206 205 202 200 197 192 188 192 200 203 206 207 206 208 211 210 209 213 217 218 218 219 217 216 218 219 219 220 221 222 222 222 221 221 221 221 221 220 221 222 222 224 230 232 228 226 226 226 227 227 225 226 220 219 223 220 222 225 225 228 229 230 229 228 227 227 230 237 240 238 234 233 233 233 236 239 243 247 249 250 247
211 209 211 212 211 207 205 206 206 204 201 197 192 186 187 195 201 204 204 203 205 208 208 207 209 216 220 219 220 218 217 219 220 220 220 220 221 222 222 222 222 222 221 221 220 220 221 221 222 229 234 232 229 227 226 228 229 226 226 225 222 221 220 222 224 224 226 229 232 233 230 227 224 226 234 237 238 237 236 235 235 235 238 241 245 248 250 250
213 211 213 214 211 207 206 207 207 204 203 199 194 190 188 192 198 202 203 201 203 204 204 205 207 212 218 221 221 221 220 220 221 221 220 220 221 220 221 221 221 221 220 220 219 219 221 221 220 226 233 234 230 227 227 229 229 227 227 227 223 219 221 222 223 223 224 227 232 235 233 229 224 223 233 239 240 242 240 236 237 236 238 241 244 247 249 251
216 214 215 215 214 209 206 207 206 205 205 202 196 193 190 189 195 200 202 200 200 204 202 203 209 210 214 219 220 221 223 223 222 220 220 221 221 221 221 221 221 221 220 219 218 217 219 223 224 227 232 233 231 228 228 230 229 227 228 227 224 220 221 224 227 227 225 228 234 238 237 233 230 223 230 240 239 240 240 237 238 237 238 240 244 247 250 252
219 217 216 215 216 211 206 206 206 205 206 204 198 195 191 189 194 197 201 200 197 204 204 203 211 212 212 215 215 216 220 223 223 221 220 221 222 222 221 221 221 221 220 220 218 215 218 224 227 230 232 233 233 231 229 231 230 228 228 228 225 222 223 225 230 232 230 233 238 242 238 232 232 225 227 238 241 240 240 239 239 239 239 240 243 247 250 253
219 220 217 215 217 213 208 207 205 205 208 206 200 196 192 191 194 194 196 196 193 199 202 203 212 214 213 212 209 209 212 215 219 220 220 220 221 222 221 221 221 221 220 221 218 214 217 223 220 223 230 232 232 231 228 229 230 228 229 229 228 227 228 227 230 236 234 235 240 241 229 224 229 227 225 236 243 244 244 243 243 244 243 242 243 246 249 253
219 220 219 215 216 213 211 209 205 207 210 209 205 199 193 193 195 193 192 191 190 192 193 196 208 210 211 212 208 207 208 208 210 216 219 219 220 221 221 220 220 220 220 221 219 213 217 223 219 217 224 229 231 230 228 229 229 229 230 230 232 233 233 230 228 236 237 234 238 232 211 214 224 226 226 232 241 247 248 247 245 245 246 246 246 247 249 251
218 220 218 215 215 213 213 211 206 208 213 213 210 203 194 195 195 193 191 188 188 191 189 191 202 204 208 209 207 208 208 205 205 209 215 217 219 220 221 220 220 220 220 219 218 214 216 223 222 218 221 225 228 230 229 229 229 230 232 230 231 232 233 234 229 232 236 235 234 225 208 213 222 224 226 230 238 245 246 246 246 246 248 248 250 252 252 251
216 218 217 214 214 214 213 213 209 210 214 216 214 208 197 196 196 194 192 187 187 192 192 194 199 200 205 206 207 211 210 209 212 213 212 213 217 219 220 220 219 219 220 219 217 214 216 222 224 221 222 225 227 229 228 227 227 228 230 228 228 232 233 236 232 229 233 236 235 227 213 217 224 224 228 232 235 241 244 245 247 248 250 250 252 254 255 254
216 216 216 213 213 214 213 214 212 212 215 216 217 214 205 199 199 196 193 189 186 190 194 196 199 201 203 204 209 215 214 215 220 222 218 214 214 217 218 218 218 218 218 219 218 215 216 220 224 224 226 228 230 231 226 221 222 224 227 227 228 233 235 237 237 233 235 239 240 236 223 220 226 227 230 235 235 238 242 245 248 251 253 252 249 249 251 253
214 214 213 213 213 213 213 214 213 213 217 217 217 218 213 207 202 196 193 191 187 188 193 194 200 206 206 206 211 217 218 219 220 224 225 220 219 220 218 217 218 218 217 217 218 217 217 218 221 224 226 227 229 230 224 219 220 223 226 227 228 233 237 240 239 237 239 241 242 242 234 224 226 229 231 236 237 236 242 246 249 252 255 257 252 248 249 251
213 213 213 213 213 213 213 214 215 215 217 220 219 219 218 214 206 196 195 195 190 190 194 192 196 205 207 207 211 213 215 218 219 220 223 223 224 224 218 216 218 220 218 218 218 217 217 217 219 224 225 221 221 225 223 220 220 222 225 227 228 233 239 242 241 238 238 242 244 245 241 230 228 233 234 237 238 237 241 245 250 254 256 260 259 254 253 254
213 212 212 213 213 213 214 215 216 217 218 222 222 220 220 218 211 202 200 198 195 196 198 194 195 200 202 204 209 210 210 215 217 218 220 220 223 224 219 215 216 218 217 218 219 220 220 219 219 222 220 217 217 220 220 219 220 223 225 228 231 236 241 243 244 242 240 244 248 248 245 237 233 237 239 241 242 240 242 245 251 259 260 258 256 257 258 258
214 212 212 212 213 213 215 217 217 219 221 224 225 222 221 221 217 213 208 200 197 201 202 198 197 199 201 202 206 209 210 213 214 217 221 221 222 223 218 213 214 216 216 216 218 220 221 220 218 217 214 215 218 218 218 219 221 224 225 228 233 239 243 245 246 245 245 246 248 249 247 240 236 239 241 243 246 247 248 250 253 257 257 255 255 258 260 262
214 213 212 212 214 214 215 218 218 220 222 224 226 223 222 222 220 220 217 207 200 201 204 201 198 200 203 204 204 206 209 211 211 213 218 221 222 223 217 211 212 215 215 215 216 217 218 217 216 214 212 216 221 222 222 220 221 224 225 228 235 242 245 246 247 247 248 248 247 249 249 243 238 240 242 245 249 252 253 253 253 253 253 256 258 260 261 261
213 212 213 212 214 215 216 219 219 220 222 223 226 224 223 223 222 223 222 216 208 200 202 203 199 200 203 205 206 207 209 212 210 209 211 216 217 219 217 212 211 214 215 215 216 216 217 216 217 218 219 222 226 228 229 226 225 226 226 230 239 245 248 249 249 249 250 249 247 248 250 248 242 242 245 247 249 251 253 254 254 253 254 256 259 260 261 261
213 212 212 212 213 215 216 219 221 221 222 223 225 226 225 224 224 224 224 222 215 202 200 202 199 199 201 203 206 207 209 212 212 211 211 214 214 213 215 213 212 213 214 216 216 216 217 217 218 223 226 227 229 232 234 232 231 230 230 235 242 247 250 250 249 249 250 250 247 246 250 250 244 241 247 250 249 250 253 255 255 254 254 256 259 260 261 264
212 211 211 212 212 214 216 218 221 221 221 222 224 228 228 226 226 224 224 225 216 202 200 201 198 199 202 201 202 205 209 210 211 213 214 216 218 215 214 214 213 215 217 218 217 216 218 219 221 225 230 232 233 236 239 238 237 236 237 241 245 248 250 250 249 249 248 249 247 247 251 250 244 243 249 252 252 252 252 253 253 254 255 255 257 260 262 264
211 210 210 211 212 213 215 217 220 222 221 220 222 227 228 227 226 225 226 225 214 204 202 200 197 201 204 204 204 206 208 208 210 213 214 216 220 220 219 216 214 216 219 219 220 221 221 222 224 228 232 235 236 239 242 243 242 241 243 245 247 248 250 251 251 251 250 249 247 249 253 252 246 245 249 252 255 257 254 254 255 256 257 257 257 259 262 265
211 210 210 210 211 213 214 216 218 221 221 219 222 226 226 226 225 224 225 223 216 209 205 201 199 201 204 206 208 210 209 208 208 210 211 214 217 220 221 221 220 221 222 220 221 223 223 225 229 231 233 234 236 237 240 243 242 242 244 246 247 248 250 251 251 251 251 249 247 248 252 254 249 245 247 250 255 260 260 259 260 259 259 260 260 261 263 265
211 210 210 210 212 212 213 215 217 219 220 220 224 227 226 226 225 224 224 221 219 215 208 203 201 201 204 207 208 211 212 210 207 206 210 212 215 217 219 220 221 223 224 224 222 222 222 225 228 230 232 235 236 237 238 241 242 242 244 246 247 247 248 249 250 250 250 249 248 249 251 254 250 247 251 254 255 259 261 261 263 262 262 262 264 266 267 267
211 210 209 210 211 212 212 214 215 217 218 218 224 229 227 226 225 225 224 221 220 219 213 206 203 201 203 207 207 209 214 215 211 207 210 213 215 217 218 220 221 222 224 225 224 223 223 226 228 229 231 234 236 237 238 240 241 243 244 245 246 246 247 247 248 249 249 250 250 250 253 253 250 252 258 259 260 260 259 260 263 266 266 266 267 269 269 271
210 210 209 210 210 211 212 213 213 214 214 213 217 226 227 227 227 225 224 222 221 221 216 209 205 202 202 204 206 206 213 219 216 213 213 215 217 219 220 222 223 225 227 226 225 223 223 225 227 228 230 232 234 237 239 241 243 244 245 246 246 246 248 248 250 251 252 253 253 254 256 254 250 252 257 261 266 266 262 261 261 263 267 268 269 270 270 273
211 210 210 210 210 211 211 212 212 212 211 210 214 221 224 225 226 224 224 224 222 222 219 213 209 204 202 202 202 203 206 215 218 219 218 217 218 219 221 221 222 224 227 228 228 227 227 229 228 228 230 232 234 237 240 242 243 243 245 247 247 247 250 252 253 254 255 255 255 255 255 253 251 253 256 261 266 267 266 264 262 262 265 268 270 272 273 274
212 211 210 210 210 211 211 212 213 211 209 209 213 220 224 224 225 222 223 225 222 220 220 217 213 209 208 205 200 199 203 209 214 219 221 220 219 219 220 222 222 223 224 226 228 230 232 234 234 234 235 235 236 238 240 241 240 240 241 242 243 244 246 248 250 251 252 253 253 253 254 253 254 255 256 259 261 264 268 269 268 269 269 270 271 273 274 275
212 213 211 211 211 211 211 212 212 213 211 209 212 219 223 224 226 225 224 225 223 220 220 219 217 214 213 212 207 203 206 212 213 215 219 221 222 221 221 222 224 226 227 228 230 231 232 233 234 235 236 236 236 237 239 239 239 239 240 242 244 244 243 246 248 250 251 253 253 254 254 255 256 255 255 259 262 265 270 272 272 272 272 272 271 272 274 275
213 215 213 212 212 212 212 212 212 213 213 211 212 217 220 221 224 225 225 225 223 221 220 220 220 218 215 215 214 211 210 212 215 215 215 218 221 222 222 223 226 228 229 230 232 232 232 233 232 232 232 232 232 233 234 233 232 235 238 241 243 243 242 244 247 249 251 253 254 255 255 256 257 256 258 262 265 267 270 271 270 270 271 273 272 273 274 274
212 215 215 213 213 213 213 214 214 214 214 214 213 215 217 218 221 223 224 224 223 222 220 220 222 221 218 216 216 215 213 211 214 219 215 213 217 220 222 223 225 227 228 228 229 231 232 232 231 229 227 226 227 229 230 229 230 233 236 238 240 241 242 244 246 248 251 254 255 256 256 256 256 258 262 265 266 266 268 269 269 269 269 270 271 272 273 273
212 214 215 214 213 213 213 214 215 215 215 216 214 214 215 215 217 221 223 223 222 223 220 218 219 221 220 220 218 217 216 212 212 219 219 215 214 215 218 221 224 226 226 225 225 227 229 230 230 228 225 224 225 226 227 228 230 232 234 236 238 241 243 243 244 248 251 254 255 256 255 255 256 259 262 263 263 263 265 267 269 268 267 267 268 269 271 273
213 213 215 214 213 213 214 215 216 217 217 216 215 214 215 215 216 219 223 224 223 224 222 218 217 218 219 220 220 221 220 214 211 216 220 218 215 213 214 218 222 223 223 222 223 225 226 228 229 228 225 225 225 224 226 230 231 231 233 235 237 241 244 245 246 248 251 254 255 257 257 257 258 260 261 261 262 261 262 263 265 266 266 265 265 266 267 270
216 214 214 215 214 213 214 214 216 218 218 217 216 214 214 214 215 215 218 222 223 223 223 221 219 218 217 217 218 221 222 217 213 214 217 216 216 216 216 220 223 223 222 220 221 223 226 228 228 228 227 226 226 226 228 230 230 229 232 236 241 244 246 249 251 251 253 256 258 260 259 257 258 259 259 259 259 259 259 259 260 264 266 267 266 265 266 268
218 216 214 215 214 213 213 214 215 218 218 217 216 215 214 213 214 215 216 220 222 222 222 222 220 220 218 216 215 216 219 219 217 219 218 213 212 214 216 221 223 223 222 221 221 224 227 229 230 230 230 229 227 227 227 227 228 230 232 235 239 241 242 246 249 249 250 252 255 257 257 254 254 257 257 255 254 255 257 258 259 262 266 268 269 268 269 269
220 218 216 215 215 214 214 215 215 217 217 216 215 215 215 213 214 215 216 218 220 220 221 222 221 220 218 217 215 214 214 216 217 222 223 215 207 207 211 216 220 220 218 216 218 222 225 228 228 228 229 229 229 228 228 229 231 233 236 238 240 242 244 246 247 248 247 247 248 250 253 252 252 255 255 252 250 252 256 260 262 263 264 265 266 267 268 269
221 220 218 217 216 215 215 216 216 217 217 216 215 215 214 213 212 213 215 218 219 219 219 221 222 221 219 216 216 216 215 212 210 214 220 216 211 212 215 215 216 217 214 212 214 218 222 226 226 227 228 228 229 228 229 231 234 236 238 239 241 243 243 242 244 244 244 245 244 245 250 253 254 255 256 255 255 256 258 258 258 258 259 260 262 264 266 268
221 221 219 218 218 217 216 216 217 218 218 217 217 216 215 214 213 213 215 217 220 220 220 219 219 221 221 218 216 217 217 214 209 205 209 214 215 217 218 214 213 215 214 217 220 222 225 228 228 228 229 228 228 229 229 232 235 237 238 237 238 240 239 238 239 240 244 247 246 247 254 258 258 257 258 258 259 256 251 247 247 250 253 257 260 263 265 268
222 222 220 219 219 218 217 216 216 217 217 218 217 216 216 215 213 214 215 217 219 221 221 220 217 218 220 219 218 218 217 216 215 211 207 209 212 211 210 210 212 214 213 219 225 227 229 232 231 231 233 233 233 234 234 236 237 238 239 240 239 239 238 237 236 240 248 252 251 254 261 260 257 256 255 253 250 244 239 239 242 246 249 252 256 260 263 265
223 223 221 220 220 219 218 217 216 217 217 218 217 216 216 215 213 214 215 216 219 221 222 221 219 217 219 220 219 219 218 217 218 217 214 212 211 208 207 207 209 211 212 218 225 228 231 232 231 233 234 234 235 235 235 236 237 238 238 238 237 238 239 240 241 247 254 253 253 259 261 252 249 251 248 243 240 236 234 235 239 243 245 248 253 257 260 263
225 224 223 222 222 221 219 218 217 218 218 218 218 216 216 215 213 214 215 215 217 220 222 221 221 219 220 222 221 219 219 218 218 219 218 216 215 212 207 205 204 208 212 216 222 228 232 233 233 234 235 233 233 233 232 233 234 234 233 233 233 235 237 240 243 246 250 250 249 250 244 236 235 237 236 233 233 235 233 232 237 242 246 248 251 254 257 260
226 224 223 223 223 223 221 219 219 220 220 220 219 217 216 215 214 214 215 215 216 219 221 221 221 219 220 223 222 219 220 220 219 220 220 218 218 216 210 208 208 208 212 215 219 226 232 233 233 234 235 235 235 235 234 233 233 232 231 230 231 232 234 236 237 238 243 243 232 224 228 223 220 226 228 228 232 236 237 238 243 248 251 251 251 252 255 258
227 226 224 224 224 223 222 219 219 220 220 220 220 219 217 216 215 214 215 216 216 217 220 221 221 220 220 222 222 219 219 220 220 220 220 220 220 219 217 218 220 219 217 216 219 226 232 233 232 234 236 236 236 238 238 236 234 233 232 230 230 230 231 231 230 231 234 232 223 222 224 219 217 224 228 231 235 239 242 245 248 251 253 253 253 254 256 260
230 227 225 225 224 224 223 222 220 220 220 221 221 220 218 217 215 215 216 217 217 216 218 220 220 221 223 223 223 221 218 219 220 220 220 221 221 222 224 228 231 230 224 218 218 224 229 231 232 234 236 235 235 238 238 237 236 234 232 230 229 230 230 231 230 230 228 227 228 228 225 218 218 223 230 234 238 242 246 249 250 252 253 255 257 260 262 264
230 228 227 225 224 224 224 224 223 221 221 223 222 220 220 218 216 216 217 218 218 217 218 219 219 221 224 225 225 223 220 220 221 221 220 219 220 223 225 228 231 230 224 219 220 223 225 227 230 232 233 233 234 235 236 236 236 234 232 231 232 231 233 233 229 224 222 224 229 229 221 213 216 224 235 240 241 246 250 251 253 255 257 259 263 266 266 264
Height
5602 5608 5614 5623 5633 5644 5654 5661 5666 5672 5679 5688 5697 5704 5710 5715 5720 5726 5733 5739 5745 5750 5755 5760 5764 5768 5773 5778 5782 5786 5790 5792 5795 5798 5803 5808 5810 5814 5818 5822 5824 5826 5829 5832 5834 5838 5840 5842 5844 5846 5847 5849 5851 5852 5853 5856 5857 5859 5861 5863 5864 5865 5866 5868 5869 5871 5872 5872 5874 5875 5876 5877 5878 5878 5879 5880 5880 5880 5881 5883 5884 5885 5886 5887 5887 5888 5889 5890
5599 5605 5611 5619 5629 5639 5647 5653 5660 5666 5673 5680 5689 5698 5705 5710 5715 5721 5727 5733 5740 5745 5750 5755 5760 5764 5768 5773 5778 5782 5785 5788 5791 5794 5800 5805 5808 5811 5815 5819 5821 5824 5827 5829 5832 5835 5837 5840 5843 5844 5845 5847 5849 5850 5852 5853 5855 5857 5859 5861 5863 5863 5864 5867 5868 5869 5870 5871 5872 5874 5875 5877 5877 5878 5878 5879 5880 5880 5881 5882 5883 5884 5885 5886 5887 5888 5889 5890
5595 5601 5607 5615 5624 5633 5641 5649 5656 5661 5667 5674 5683 5693 5699 5705 5710 5716 5722 5728 5735 5740 5745 5750 5755 5759 5763 5769 5773 5777 5781 5784 5787 5792 5798 5802 5805 5809 5812 5816 5819 5821 5824 5826 5829 5832 5834 5838 5840 5842 5843 5845 5847 5849 5850 5852 5853 5855 5857 5859 5860 5862 5864 5866 5866 5867 5869 5869 5871 5872 5874 5875 5876 5877 5877 5878 5879 5879 5880 5881 5882 5884 5885 5886 5886 5887 5888 5889
5590 5597 5603 5610 5619 5628 5638 5646 5652 5658 5665 5671 5679 5687 5693 5700 5705 5711 5717 5723 5730 5735 5740 5745 5750 5755 5759 5765 5769 5773 5777 5779 5784 5791 5797 5799 5803 5806 5810 5814 5816 5819 5822 5824 5826 5829 5832 5835 5838 5840 5841 5843 5846 5847 5849 5850 5851 5852 5855 5857 5858 5860 5862 5864 5865 5866 5867 5869 5869 5870 5872 5874 5875 5876 5876 5877 5878 5879 5881 5881 5882 5883 5884 5885 5885 5886 5887 5888
5587 5592 5598 5605 5613 5623 5633 5640 5646 5655 5663 5668 5675 5682 5689 5696 5701 5706 5712 5718 5725 5730 5735 5741 5747 5751 5755 5760 5764 5768 5772 5774 5782 5790 5793 5796 5800 5803 5807 5811 5814 5816 5819 5822 5824 5827 5830 5833 5836 5837 5839 5842 5844 5846 5847 5847 5848 5851 5853 5854 5856 5858 5860 5862 5864 5864 5866 5867 5868 5869 5871 5872 5873 5874 5876 5876 5877 5879 5880 5880 5881 5882 5883 5884 5884 5885 5886 5887
5583 5589 5593 5599 5608 5617 5626 5633 5641 5650 5658 5664 5670 5675 5683 5691 5696 5701 5708 5714 5719 5725 5730 5736 5743 5748 5752 5756 5760 5763 5767 5772 5781 5787 5789 5792 5796 5800 5804 5807 5811 5813 5816 5820 5822 5825 5827 5830 5832 5834 5838 5840 5842 5845 5845 5845 5846 5849 5850 5850 5853 5855 5858 5861 5861 5862 5864 5865 5867 5869 5870 5870 5871 5873 5875 5875 5876 5878 5879 5879 5880 5881 5881 5882 5883 5884 5885 5886
5581 5586 5589 5595 5602 5611 5620 5627 5636 5645 5653 5660 5665 5669 5676 5685 5691 5696 5702 5709 5714 5720 5725 5732 5740 5745 5748 5751 5754 5757 5762 5769 5777 5784 5786 5789 5793 5796 5801 5804 5808 5810 5814 5818 5820 5822 5825 5827 5830 5832 5836 5838 5841 5843 5842 5844 5845 5846 5847 5848 5851 5854 5857 5859 5859 5860 5862 5864 5866 5867 5868 5869 5870 5872 5873 5873 5875 5877 5878 5878 5879 5879 5880 5881 5882 5883 5884 5885
5578 5583 5587 5592 5598 5606 5615 5622 5631 5640 5647 5654 5660 5664 5669 5679 5687 5691 5695 5703 5710 5715 5721 5729 5735 5741 5743 5745 5749 5753 5759 5765 5772 5780 5782 5785 5790 5793 5798 5801 5805 5808 5812 5815 5817 5821 5822 5824 5827 5829 5833 5835 5838 5839 5840 5843 5844 5844 5845 5847 5850 5852 5854 5856 5857 5859 5861 5862 5864 5866 5867 5868 5869 5870 5871 5871 5873 5876 5876 5877 5878 5878 5879 5880 5881 5882 5883 5884
5574 5579 5583 5588 5593 5600 5609 5616 5625 5634 5639 5647 5653 5658 5664 5672 5682 5686 5689 5697 5705 5710 5718 5725 5730 5735 5738 5741 5745 5749 5757 5763 5769 5776 5779 5782 5787 5791 5795 5798 5802 5806 5809 5812 5815 5818 5820 5822 5825 5827 5829 5832 5833 5835 5838 5841 5841 5842 5843 5846 5849 5850 5852 5854 5855 5857 5859 5861 5862 5864 5865 5866 5868 5869 5869 5869 5872 5874 5875 5876 5876 5877 5878 5879 5880 5881 5882 5883
5571 5576 5580 5583 5587 5593 5602 5610 5619 5626 5631 5640 5647 5652 5658 5665 5674 5680 5685 5694 5701 5707 5714 5721 5727 5731 5734 5737 5740 5746 5755 5759 5764 5772 5776 5779 5783 5787 5792 5795 5799 5803 5807 5810 5813 5815 5817 5820 5823 5824 5825 5827 5829 5832 5836 5837 5839 5842 5843 5845 5847 5847 5849 5851 5853 5855 5857 5858 5860 5862 5863 5865 5867 5868 5868 5868 5871 5872 5873 5874 5875 5876 5877 5878 5879 5880 5881 5882
5567 5572 5576 5579 5583 5588 5597 5605 5613 5619 5625 5635 5642 5646 5652 5658 5667 5675 5683 5692 5698 5703 5710 5718 5725 5728 5730 5733 5736 5744 5752 5754 5760 5767 5771 5775 5779 5784 5788 5792 5796 5800 5804 5807 5810 5813 5815 5818 5820 5821 5822 5824 5827 5830 5833 5835 5838 5841 5842 5843 5844 5844 5847 5849 5851 5853 5854 5856 5858 5859 5861 5863 5865 5867 5867 5866 5867 5869 5871 5873 5874 5875 5876 5877 5878 5879 5880 5881
5564 5568 5572 5575 5580 5586 5593 5601 5609 5615 5621 5629 5638 5643 5647 5652 5661 5670 5677 5685 5692 5698 5707 5715 5721 5723 5725 5729 5734 5741 5747 5750 5755 5761 5766 5770 5773 5779 5784 5787 5792 5796 5800 5803 5806 5809 5812 5815 5817 5819 5819 5821 5824 5827 5830 5833 5836 5839 5840 5841 5842 5843 5846 5847 5849 5850 5852 5855 5856 5857 5858 5860 5863 5865 5864 5863 5865 5867 5869 5871 5872 5873 5874 5875 5876 5877 5878 5879
5560 5564 5567 5571 5576 5582 5589 5597 5605 5612 5617 5623 5631 5639 5643 5648 5654 5663 5670 5678 5687 5694 5702 5710 5715 5720 5722 5725 5731 5737 5742 5746 5750 5756 5761 5764 5768 5774 5779 5783 5787 5791 5795 5798 5802 5805 5808 5811 5814 5816 5817 5818 5821 5824 5828 5831 5833 5836 5838 5838 5839 5842 5844 5845 5846 5848 5851 5853 5853 5854 5856 5859 5861 5862 5861 5861 5864 5866 5867 5869 5870 5872 5873 5874 5875 5876 5877 5878
5557 5561 5564 5567 5572 5578 5584 5592 5601 5608 5612 5616 5623 5632 5639 5644 5649 5656 5664 5673 5684 5691 5698 5705 5710 5715 5718 5721 5728 5734 5737 5741 5744 5750 5756 5760 5765 5770 5774 5779 5783 5787 5791 5794 5798 5802 5805 5807 5811 5813 5813 5815 5817 5821 5826 5829 5830 5833 5834 5835 5838 5840 5842 5844 5845 5847 5849 5850 5851 5852 5855 5858 5859 5860 5860 5859 5862 5863 5865 5867 5868 5870 5871 5872 5873 5874 5875 5877
5554 5557 5560 5564 5568 5574 5580 5587 5596 5602 5605 5609 5616 5626 5634 5640 5644 5651 5661 5669 5681 5689 5695 5703 5705 5709 5715 5718 5723 5729 5733 5736 5740 5746 5752 5756 5761 5765 5770 5776 5780 5783 5787 5790 5795 5799 5802 5804 5809 5809 5809 5812 5815 5819 5824 5825 5827 5829 5830 5833 5837 5839 5841 5843 5844 5844 5846 5848 5848 5850 5854 5856 5855 5857 5858 5857 5859 5861 5862 5865 5866 5868 5869 5870 5871 5872 5873 5875
5551 5554 5557 5561 5565 5571 5576 5582 5591 5596 5599 5604 5611 5620 5629 5637 5641 5647 5655 5665 5678 5686 5692 5700 5702 5704 5710 5713 5716 5720 5725 5730 5735 5741 5747 5752 5756 5760 5766 5771 5775 5779 5783 5787 5791 5795 5798 5800 5804 5804 5805 5809 5811 5815 5820 5821 5823 5825 5828 5832 5836 5838 5840 5841 5842 5842 5844 5846 5846 5848 5852 5852 5851 5853 5856 5856 5856 5858 5861 5863 5864 5866 5867 5868 5870 5871 5872 5873
5547 5550 5554 5558 5561 5567 5573 5579 5587 5591 5593 5599 5605 5612 5622 5631 5638 5644 5649 5659 5672 5679 5685 5694 5698 5698 5700 5704 5709 5714 5720 5725 5730 5736 5741 5746 5750 5755 5761 5766 5770 5775 5779 5783 5786 5791 5794 5796 5799 5799 5801 5804 5808 5812 5815 5817 5819 5822 5827 5832 5836 5837 5837 5837 5839 5840 5841 5843 5845 5847 5849 5849 5848 5850 5853 5855 5854 5856 5859 5861 5862 5864 5865 5866 5868 5869 5870 5871
5543 5546 5550 5554 5557 5563 5569 5575 5582 5586 5588 5593 5598 5604 5614 5623 5633 5640 5643 5651 5663 5671 5678 5684 5687 5688 5687 5694 5706 5713 5717 5721 5725 5730 5735 5740 5746 5751 5757 5761 5766 5770 5773 5777 5781 5786 5790 5792 5794 5795 5797 5800 5804 5808 5811 5814 5819 5823 5826 5831 5833 5833 5832 5833 5836 5837 5839 5841 5842 5845 5847 5846 5846 5848 5851 5852 5853 5855 5857 5858 5860 5861 5863 5864 5866 5867 5868 5869
5539 5543 5547 5551 5554 5559 5565 5571 5577 5581 5583 5586 5592 5600 5609 5617 5626 5634 5637 5642 5652 5661 5668 5671 5674 5678 5681 5692 5704 5708 5711 5717 5721 5725 5730 5735 5742 5747 5751 5755 5760 5764 5767 5772 5777 5781 5785 5787 5789 5791 5794 5797 5800 5804 5809 5814 5818 5821 5823 5826 5828 5828 5829 5830 5832 5835 5837 5838 5839 5843 5845 5845 5845 5847 5848 5850 5851 5853 5855 5856 5857 5858 5860 5862 5864 5865 5866 5867
5535 5539 5543 5547 5551 5556 5562 5567 5572 5577 5579 5581 5587 5593 5600 5608 5616 5624 5630 5635 5643 5653 5661 5666 5667 5672 5680 5691 5699 5701 5706 5713 5717 5721 5725 5730 5736 5741 5745 5748 5752 5755 5761 5768 5773 5777 5780 5782 5785 5790 5794 5797 5799 5803 5807 5811 5814 5816 5818 5822 5825 5825 5826 5828 5829 5833 5835 5836 5838 5840 5843 5844 5844 5846 5846 5847 5850 5852 5853 5853 5855 5856 5857 5859 5861 5862 5864 5865
5531 5535 5539 5544 5549 5553 5559 5564 5568 5572 5574 5577 5583 5586 5591 5601 5609 5621 5632 5637 5642 5650 5658 5663 5664 5668 5677 5686 5693 5697 5704 5710 5713 5716 5720 5724 5729 5733 5738 5742 5745 5749 5757 5763 5767 5771 5773 5776 5783 5789 5792 5796 5798 5801 5804 5806 5808 5812 5815 5818 5821 5822 5824 5825 5826 5831 5833 5833 5835 5837 5840 5842 5843 5844 5845 5846 5848 5850 5851 5851 5853 5854 5855 5857 5858 5860 5861 5862
5527 5531 5536 5541 5546 5551 5556 5560 5564 5568 5571 5572 5577 5583 5588 5596 5608 5624 5634 5638 5642 5645 5651 5657 5660 5666 5675 5682 5687 5692 5698 5703 5707 5711 5714 5717 5720 5726 5733 5737 5741 5747 5754 5757 5758 5762 5767 5774 5782 5786 5789 5792 5794 5796 5799 5801 5804 5808 5811 5814 5817 5820 5822 5822 5823 5828 5831 5830 5833 5834 5836 5840 5842 5842 5843 5845 5847 5848 5848 5849 5850 5851 5853 5855 5856 5857 5858 5859
5523 5527 5532 5538 5543 5549 5553 5557 5560 5564 5568 5569 5573 5581 5586 5593 5607 5618 5623 5630 5636 5638 5644 5651 5656 5664 5671 5677 5681 5686 5692 5697 5703 5708 5710 5712 5716 5722 5728 5732 5737 5742 5746 5750 5755 5761 5767 5774 5780 5783 5785 5787 5789 5792 5794 5797 5800 5804 5808 5811 5815 5818 5818 5819 5821 5824 5828 5829 5831 5831 5832 5836 5840 5841 5842 5844 5845 5846 5846 5848 5849 5850 5852 5853 5854 5855 5857 5858
5519 5524 5528 5534 5539 5545 5549 5553 5557 5561 5564 5566 5570 5577 5583 5589 5600 5608 5615 5624 5628 5629 5636 5644 5651 5658 5665 5671 5677 5682 5688 5693 5700 5706 5707 5710 5714 5717 5722 5727 5732 5735 5740 5747 5754 5761 5767 5772 5778 5779 5780 5782 5785 5789 5791 5793 5797 5801 5805 5808 5812 5814 5815 5816 5817 5820 5825 5826 5827 5828 5828 5832 5838 5839 5840 5842 5842 5844 5845 5846 5848 5849 5850 5851 5852 5854 5855 5856
5516 5520 5525 5530 5534 5540 5545 5548 5554 5558 5560 5564 5567 5573 5580 5586 5593 5600 5608 5617 5621 5625 5631 5637 5646 5654 5659 5666 5673 5679 5685 5690 5694 5701 5705 5709 5711 5713 5718 5721 5725 5729 5735 5743 5749 5755 5760 5766 5771 5772 5774 5777 5780 5786 5789 5790 5794 5797 5801 5805 5808 5811 5812 5813 5814 5816 5821 5823 5824 5825 5824 5827 5834 5837 5838 5840 5840 5842 5844 5844 5846 5848 5848 5849 5850 5851 5853 5853
5513 5517 5521 5526 5530 5536 5541 5544 5549 5554 5557 5560 5564 5570 5576 5582 5589 5593 5600 5606 5611 5619 5624 5630 5640 5650 5657 5663 5669 5675 5680 5682 5688 5695 5701 5703 5706 5711 5713 5715 5720 5727 5734 5740 5744 5748 5754 5760 5764 5766 5769 5772 5775 5781 5785 5787 5790 5793 5798 5803 5805 5807 5809 5809 5811 5813 5816 5818 5820 5822 5821 5823 5830 5835 5837 5838 5839 5840 5841 5842 5844 5845 5846 5847 5848 5849 5849 5850
5509 5513 5518 5522 5527 5532 5536 5540 5544 5550 5555 5558 5561 5566 5571 5577 5582 5586 5592 5596 5600 5612 5620 5624 5633 5644 5653 5661 5666 5669 5668 5674 5683 5690 5693 5697 5701 5705 5706 5710 5718 5725 5729 5732 5735 5742 5750 5756 5760 5762 5765 5767 5771 5776 5780 5784 5786 5789 5795 5799 5802 5804 5805 5806 5808 5809 5812 5814 5815 5818 5820 5820 5824 5832 5836 5835 5836 5838 5839 5840 5841 5842 5843 5844 5845 5846 5846 5847
5505 5510 5514 5519 5523 5527 5531 5535 5540 5545 5551 5555 5558 5561 5563 5569 5574 5578 5583 5584 5591 5607 5615 5619 5629 5639 5647 5654 5659 5660 5662 5672 5681 5684 5688 5692 5695 5699 5703 5708 5717 5722 5724 5726 5733 5741 5747 5750 5755 5758 5760 5763 5770 5775 5777 5779 5782 5786 5791 5796 5799 5800 5800 5802 5804 5806 5808 5810 5811 5814 5818 5817 5819 5828 5834 5832 5833 5836 5837 5838 5838 5839 5840 5842 5842 5842 5843 5845
5501 5506 5511 5516 5519 5523 5527 5532 5536 5539 5545 5551 5553 5553 5556 5563 5567 5571 5573 5576 5589 5604 5611 5618 5627 5632 5638 5645 5650 5654 5660 5668 5674 5679 5685 5687 5689 5694 5700 5706 5714 5716 5718 5724 5732 5736 5740 5745 5750 5753 5756 5762 5769 5772 5772 5776 5779 5783 5786 5791 5795 5795 5797 5799 5800 5803 5805 5806 5808 5811 5814 5814 5815 5823 5830 5831 5831 5834 5835 5835 5835 5836 5837 5838 5839 5840 5841 5842
5498 5503 5508 5512 5516 5519 5524 5529 5531 5534 5540 5546 5547 5548 5553 5557 5560 5562 5561 5569 5587 5599 5606 5616 5621 5623 5631 5639 5644 5650 5656 5662 5668 5676 5679 5681 5685 5691 5697 5703 5708 5709 5711 5718 5724 5727 5735 5742 5744 5747 5753 5760 5764 5766 5768 5771 5775 5778 5781 5785 5789 5791 5793 5795 5796 5798 5800 5801 5804 5808 5811 5811 5811 5816 5825 5829 5830 5831 5832 5832 5832 5833 5834 5835 5836 5837 5839 5840
5494 5499 5504 5508 5512 5516 5521 5524 5527 5531 5536 5542 5544 5546 5549 5552 5554 5553 5555 5572 5588 5594 5600 5609 5614 5621 5628 5635 5640 5646 5652 5657 5664 5670 5671 5676 5682 5685 5690 5695 5697 5702 5706 5712 5717 5723 5729 5732 5735 5743 5751 5754 5756 5760 5764 5767 5770 5775 5777 5781 5785 5787 5788 5790 5791 5792 5794 5796 5800 5804 5807 5808 5809 5812 5819 5825 5828 5829 5829 5829 5828 5829 5831 5831 5833 5834 5836 5837
5490 5495 5499 5503 5507 5511 5515 5518 5524 5529 5534 5540 5542 5541 5543 5545 5545 5546 5557 5577 5585 5585 5595 5604 5611 5619 5626 5631 5637 5643 5648 5651 5659 5665 5667 5673 5678 5680 5685 5689 5692 5697 5700 5707 5715 5720 5725 5728 5732 5739 5744 5747 5750 5755 5759 5762 5766 5770 5773 5776 5779 5781 5782 5783 5785 5787 5789 5793 5797 5800 5803 5804 5807 5812 5815 5818 5823 5825 5825 5825 5825 5826 5827 5828 5830 5831 5833 5833
5485 5490 5494 5498 5502 5507 5511 5515 5521 5526 5531 5536 5536 5533 5535 5536 5537 5546 5561 5572 5573 5578 5591 5602 5610 5619 5624 5626 5631 5639 5644 5648 5654 5661 5664 5671 5675 5678 5684 5687 5691 5695 5699 5707 5713 5716 5720 5722 5726 5732 5737 5742 5747 5751 5754 5758 5763 5766 5768 5771 5773 5775 5777 5779 5782 5784 5787 5791 5794 5797 5798 5800 5806 5811 5812 5814 5816 5819 5820 5822 5823 5823 5823 5824 5826 5828 5829 5830
5481 5486 5490 5494 5498 5502 5507 5512 5517 5522 5528 5530 5529 5527 5528 5528 5535 5550 5560 5562 5568 5579 5590 5599 5609 5615 5619 5622 5628 5636 5641 5643 5650 5656 5660 5664 5667 5671 5676 5680 5686 5693 5699 5705 5707 5711 5715 5717 5721 5729 5735 5740 5745 5748 5752 5756 5759 5762 5764 5766 5768 5772 5775 5777 5780 5782 5785 5786 5789 5792 5793 5797 5803 5807 5809 5811 5811 5813 5815 5817 5819 5819 5820 5821 5823 5824 5825 5827
5477 5481 5485 5489 5493 5498 5503 5508 5512 5518 5521 5523 5523 5522 5522 5526 5536 5548 5553 5555 5566 5579 5587 5595 5605 5609 5613 5618 5624 5631 5635 5638 5645 5650 5653 5656 5660 5665 5671 5676 5682 5689 5694 5697 5701 5708 5714 5717 5724 5731 5735 5739 5743 5744 5748 5751 5753 5756 5758 5759 5763 5768 5772 5773 5775 5777 5779 5780 5782 5786 5790 5795 5799 5802 5805 5807 5807 5808 5810 5812 5814 5816 5817 5818 5819 5820 5821 5822
5473 5476 5480 5485 5490 5494 5500 5504 5508 5512 5515 5518 5519 5517 5519 5528 5537 5546 5550 5554 5565 5576 5583 5590 5596 5599 5605 5611 5615 5622 5628 5633 5640 5644 5646 5651 5658 5664 5670 5675 5681 5687 5692 5696 5701 5707 5711 5714 5721 5726 5729 5735 5738 5740 5744 5746 5748 5751 5753 5755 5761 5765 5766 5768 5770 5772 5774 5775 5779 5783 5787 5792 5795 5797 5801 5803 5804 5806 5806 5807 5809 5811 5812 5814 5815 5816 5817 5818
5469 5472 5477 5482 5486 5491 5495 5499 5502 5505 5510 5513 5513 5515 5522 5530 5536 5543 5548 5553 5563 5572 5578 5584 5588 5592 5600 5604 5607 5614 5621 5627 5634 5638 5642 5647 5651 5658 5665 5672 5678 5684 5690 5696 5701 5704 5708 5711 5716 5719 5722 5728 5731 5732 5735 5738 5741 5745 5748 5753 5758 5759 5761 5764 5766 5768 5770 5771 5775 5780 5784 5787 5790 5793 5798 5800 5801 5803 5803 5803 5804 5806 5808 5809 5810 5811 5812 5813
5466 5469 5473 5478 5482 5486 5491 5493 5496 5501 5505 5506 5510 5516 5522 5528 5534 5539 5543 5550 5558 5564 5571 5578 5582 5588 5595 5599 5604 5611 5617 5623 5628 5632 5637 5641 5644 5652 5660 5668 5675 5682 5688 5695 5698 5700 5704 5707 5711 5714 5718 5723 5725 5724 5727 5732 5737 5742 5747 5751 5753 5753 5756 5760 5761 5764 5766 5767 5771 5776 5779 5781 5786 5792 5796 5797 5798 5799 5799 5798 5799 5801 5803 5804 5805 5806 5807 5808
5460 5464 5468 5473 5478 5482 5485 5488 5492 5496 5497 5500 5506 5514 5519 5526 5533 5536 5539 5547 5553 5555 5562 5571 5578 5585 5590 5596 5602 5608 5613 5619 5624 5628 5632 5636 5642 5651 5659 5665 5672 5678 5684 5690 5692 5695 5700 5703 5706 5710 5714 5718 5718 5717 5722 5729 5735 5740 5743 5745 5747 5748 5751 5755 5757 5760 5762 5763 5767 5770 5772 5776 5784 5790 5791 5792 5793 5794 5794 5794 5794 5794 5796 5799 5800 5802 5803 5804
5455 5460 5465 5469 5473 5476 5480 5484 5487 5489 5491 5497 5505 5513 5520 5527 5532 5534 5537 5544 5548 5549 5555 5565 5573 5579 5585 5592 5598 5603 5608 5615 5621 5624 5628 5634 5641 5649 5656 5662 5669 5674 5680 5686 5687 5690 5695 5697 5701 5705 5707 5710 5711 5713 5722 5729 5732 5735 5737 5740 5743 5744 5746 5750 5753 5756 5758 5759 5763 5765 5767 5775 5782 5785 5786 5787 5789 5789 5790 5790 5790 5789 5790 5793 5795 5797 5798 5799
5451 5456 5460 5464 5468 5472 5475 5478 5480 5483 5488 5495 5503 5511 5518 5523 5527 5531 5535 5539 5542 5546 5553 5561 5567 5572 5580 5587 5593 5598 5604 5610 5616 5619 5624 5630 5637 5644 5652 5658 5665 5671 5675 5678 5679 5683 5688 5691 5695 5698 5700 5706 5711 5715 5720 5722 5725 5730 5733 5736 5740 5741 5743 5746 5748 5753 5755 5756 5760 5761 5763 5771 5778 5779 5781 5783 5783 5784 5785 5786 5785 5784 5784 5787 5790 5792 5793 5795
5446 5451 5456 5461 5465 5468 5471 5474 5477 5480 5485 5492 5501 5509 5515 5519 5524 5529 5534 5536 5539 5543 5549 5553 5559 5566 5574 5582 5589 5595 5599 5605 5611 5615 5621 5628 5635 5644 5652 5656 5661 5666 5669 5673 5677 5681 5685 5688 5690 5693 5698 5704 5706 5707 5711 5715 5719 5723 5725 5730 5733 5733 5737 5741 5743 5748 5750 5751 5756 5756 5757 5766 5773 5774 5776 5778 5777 5778 5779 5780 5781 5781 5781 5783 5784 5786 5788 5789
5443 5448 5453 5457 5461 5464 5466 5469 5472 5475 5481 5491 5499 5505 5510 5515 5520 5525 5529 5532 5535 5540 5544 5548 5553 5560 5568 5576 5583 5588 5594 5601 5608 5614 5620 5627 5635 5643 5648 5651 5656 5660 5662 5668 5672 5674 5677 5680 5683 5686 5691 5695 5698 5701 5707 5710 5712 5714 5719 5725 5727 5729 5735 5738 5739 5742 5743 5746 5751 5750 5751 5762 5770 5770 5771 5771 5772 5773 5774 5776 5778 5778 5778 5779 5779 5780 5781 5782
5440 5443 5448 5453 5456 5458 5459 5463 5468 5472 5480 5489 5493 5497 5502 5508 5514 5519 5523 5526 5530 5535 5540 5544 5550 5556 5563 5571 5577 5582 5589 5595 5603 5611 5616 5622 5630 5637 5640 5644 5649 5651 5656 5662 5665 5668 5671 5672 5674 5679 5683 5686 5689 5693 5697 5701 5704 5710 5717 5721 5723 5727 5731 5731 5733 5734 5735 5740 5745 5741 5745 5759 5766 5765 5765 5766 5768 5770 5771 5773 5773 5773 5773 5773 5773 5775 5775 5777
5433 5436 5441 5445 5448 5450 5453 5460 5466 5471 5479 5484 5487 5493 5499 5504 5511 5516 5519 5523 5527 5531 5536 5541 5547 5553 5559 5565 5571 5577 5583 5590 5599 5605 5611 5617 5624 5629 5633 5639 5642 5645 5654 5662 5665 5667 5667 5665 5669 5675 5675 5675 5678 5684 5692 5699 5703 5708 5711 5714 5718 5720 5721 5724 5727 5726 5729 5737 5739 5736 5745 5758 5762 5761 5762 5763 5763 5766 5767 5768 5768 5768 5768 5768 5768 5769 5770 5772
5424 5428 5434 5438 5441 5445 5450 5457 5462 5466 5472 5476 5481 5489 5494 5500 5508 5514 5517 5521 5523 5527 5532 5538 5544 5549 5552 5557 5564 5569 5576 5585 5593 5599 5606 5612 5618 5623 5629 5633 5636 5642 5651 5657 5659 5661 5659 5659 5666 5670 5671 5676 5682 5688 5696 5700 5701 5704 5708 5713 5715 5715 5716 5720 5720 5722 5731 5736 5733 5736 5748 5754 5754 5756 5757 5757 5759 5761 5762 5763 5764 5763 5763 5762 5763 5764 5766 5767
5418 5423 5429 5433 5437 5441 5444 5450 5455 5459 5465 5469 5476 5484 5490 5497 5506 5510 5512 5517 5521 5524 5529 5533 5538 5542 5546 5552 5558 5563 5571 5580 5587 5594 5602 5608 5614 5620 5624 5628 5632 5638 5644 5648 5651 5653 5652 5654 5661 5666 5671 5678 5681 5683 5689 5693 5697 5703 5707 5709 5712 5712 5714 5716 5718 5726 5733 5729 5728 5739 5746 5746 5748 5750 5750 5752 5755 5756 5757 5758 5758 5756 5756 5757 5759 5760 5761 5762
5414 5420 5426 5431 5434 5436 5440 5446 5452 5457 5461 5466 5473 5481 5487 5493 5500 5503 5507 5514 5519 5521 5524 5527 5531 5538 5545 5550 5554 5560 5568 5575 5582 5590 5598 5605 5611 5616 5620 5624 5627 5632 5637 5640 5643 5646 5645 5649 5658 5664 5668 5672 5673 5675 5681 5686 5691 5696 5698 5702 5706 5707 5708 5711 5717 5726 5726 5721 5728 5739 5739 5739 5743 5743 5744 5748 5749 5749 5751 5752 5751 5750 5751 5753 5755 5756 5757 5758
5411 5416 5420 5424 5427 5433 5440 5447 5452 5455 5459 5464 5470 5475 5482 5488 5493 5498 5504 5510 5514 5516 5519 5523 5528 5535 5541 5545 5550 5556 5562 5569 5577 5585 5594 5603 5608 5611 5615 5618 5622 5627 5632 5634 5638 5640 5641 5646 5654 5658 5662 5666 5667 5670 5676 5680 5683 5686 5690 5695 5698 5699 5703 5708 5714 5720 5717 5718 5728 5732 5729 5732 5736 5735 5738 5742 5741 5743 5745 5746 5746 5746 5747 5748 5749 5751 5753 5753
5408 5411 5415 5419 5423 5428 5435 5441 5445 5448 5454 5459 5463 5469 5477 5483 5489 5495 5500 5503 5507 5513 5516 5520 5527 5534 5538 5541 5545 5551 5559 5567 5575 5584 5594 5602 5606 5610 5613 5615 5621 5626 5628 5630 5633 5635 5638 5644 5649 5653 5656 5658 5661 5666 5671 5674 5677 5680 5683 5687 5690 5693 5698 5702 5709 5712 5710 5714 5722 5722 5721 5726 5729 5730 5733 5736 5737 5740 5741 5741 5742 5741 5741 5742 5743 5746 5748 5749
5405 5408 5410 5414 5418 5424 5430 5435 5439 5443 5447 5450 5456 5464 5472 5478 5486 5493 5497 5499 5504 5511 5515 5520 5529 5534 5536 5538 5541 5549 5559 5566 5573 5583 5592 5599 5605 5610 5611 5614 5619 5622 5623 5626 5628 5631 5635 5640 5645 5648 5648 5650 5658 5663 5664 5668 5671 5671 5672 5677 5682 5687 5693 5699 5706 5707 5706 5711 5717 5716 5717 5723 5726 5728 5730 5732 5734 5735 5736 5737 5736 5734 5734 5736 5738 5741 5743 5744
5400 5403 5405 5409 5414 5419 5424 5430 5434 5438 5442 5446 5453 5462 5469 5477 5486 5491 5493 5496 5502 5508 5514 5520 5527 5530 5531 5533 5539 5549 5559 5566 5574 5583 5588 5593 5600 5603 5605 5611 5615 5616 5619 5623 5625 5628 5631 5635 5639 5639 5641 5648 5655 5655 5658 5662 5659 5656 5665 5676 5682 5686 5692 5698 5701 5701 5703 5708 5710 5711 5717 5722 5723 5724 5726 5728 5729 5730 5730 5731 5729 5729 5731 5732 5735 5737 5737 5738